GJOHN EGHR-EGKA

Flight info

Callsign GJOHN
Flight time 0h 20m
Altitude 1500
Route GOODWOOD LITTLEHAMPTON WORTHING SHOREHAM
Aircraft C182/L-VGDW/C

Departure

Time 2026-05-05 13:04
Airport Goodwood Aerodrome (EGHR)

Arrival

Time 2026-05-05 13:25
Airport Brighton City Airport (EGKA)
Time Latitude Longitude Altitude Speed Heading
2026-05-05 13:00 50.85887 -0.75661 114 ft 0 kts 78°
2026-05-05 13:01 50.85908 -0.75660 114 ft 8 kts 316°
2026-05-05 13:01 50.85955 -0.75729 114 ft 7 kts 317°
2026-05-05 13:01 50.85977 -0.75774 114 ft 7 kts 305°
2026-05-05 13:02 50.85990 -0.75810 114 ft 1 kts 299°
2026-05-05 13:02 50.85998 -0.75869 114 ft 6 kts 246°
2026-05-05 13:02 50.85965 -0.75937 114 ft 12 kts 234°
2026-05-05 13:02 50.85902 -0.76087 114 ft 21 kts 234°
2026-05-05 13:03 50.85823 -0.76268 114 ft 19 kts 236°
2026-05-05 13:03 50.85806 -0.76373 114 ft 7 kts 339°
2026-05-05 13:03 50.85856 -0.76348 114 ft 12 kts 57°
2026-05-05 13:03 50.85950 -0.76119 114 ft 47 kts 56°
2026-05-05 13:04 50.86202 -0.75512 216 ft 75 kts 56°
2026-05-05 13:04 50.86521 -0.74756 421 ft 87 kts 55°
2026-05-05 13:04 50.86795 -0.73947 734 ft 81 kts 72°
2026-05-05 13:04 50.86730 -0.73069 958 ft 84 kts 112°
2026-05-05 13:05 50.86260 -0.72477 1146 ft 93 kts 155°
2026-05-05 13:05 50.85590 -0.72514 1279 ft 102 kts 199°
2026-05-05 13:05 50.85085 -0.73283 1396 ft 105 kts 244°
2026-05-05 13:05 50.84976 -0.74410 1455 ft 105 kts 287°
2026-05-05 13:06 50.85338 -0.75380 1500 ft 103 kts 309°
2026-05-05 13:06 50.85726 -0.76343 1505 ft 106 kts 301°
2026-05-05 13:06 50.85955 -0.77446 1507 ft 105 kts 287°
2026-05-05 13:06 50.86049 -0.78496 1509 ft 104 kts 281°
2026-05-05 13:07 50.86107 -0.79633 1508 ft 103 kts 278°
2026-05-05 13:07 50.86350 -0.80632 1498 ft 96 kts 320°
2026-05-05 13:07 50.86950 -0.80958 1501 ft 91 kts 355°
2026-05-05 13:07 50.87512 -0.80593 1492 ft 93 kts 46°
2026-05-05 13:08 50.87837 -0.79687 1502 ft 93 kts 57°
2026-05-05 13:08 50.88161 -0.78802 1506 ft 93 kts 54°
2026-05-05 13:08 50.88522 -0.77888 1509 ft 103 kts 54°
2026-05-05 13:08 50.88921 -0.76899 1507 ft 109 kts 54°
2026-05-05 13:09 50.89262 -0.75812 1497 ft 115 kts 76°
2026-05-05 13:09 50.89057 -0.74588 1490 ft 121 kts 123°
2026-05-05 13:09 50.88363 -0.73921 1496 ft 115 kts 158°
2026-05-05 13:09 50.87727 -0.73289 1494 ft 106 kts 124°
2026-05-05 13:10 50.87357 -0.72316 1499 ft 102 kts 114°
2026-05-05 13:10 50.87024 -0.71339 1498 ft 100 kts 114°
2026-05-05 13:10 50.86688 -0.70351 1500 ft 104 kts 114°
2026-05-05 13:10 50.86340 -0.69335 1500 ft 106 kts 115°
2026-05-05 13:11 50.85985 -0.68300 1500 ft 108 kts 115°
2026-05-05 13:11 50.85620 -0.67238 1500 ft 109 kts 115°
2026-05-05 13:11 50.85264 -0.66203 1499 ft 108 kts 115°
2026-05-05 13:11 50.84901 -0.65147 1498 ft 108 kts 115°
2026-05-05 13:12 50.84542 -0.64105 1497 ft 108 kts 115°
2026-05-05 13:12 50.84184 -0.63064 1497 ft 108 kts 115°
2026-05-05 13:12 50.83822 -0.62013 1496 ft 110 kts 115°
2026-05-05 13:12 50.83455 -0.60947 1496 ft 111 kts 115°
2026-05-05 13:13 50.83085 -0.59877 1499 ft 111 kts 114°
2026-05-05 13:13 50.82714 -0.58799 1497 ft 113 kts 114°
2026-05-05 13:13 50.82346 -0.57732 1497 ft 109 kts 114°
2026-05-05 13:13 50.81988 -0.56697 1497 ft 107 kts 113°
2026-05-05 13:14 50.81636 -0.55676 1496 ft 105 kts 113°
2026-05-05 13:14 50.81357 -0.54635 1492 ft 101 kts 94°
2026-05-05 13:14 50.81317 -0.53546 1495 ft 98 kts 85°
2026-05-05 13:14 50.81318 -0.52469 1496 ft 98 kts 83°
2026-05-05 13:15 50.81327 -0.51383 1496 ft 98 kts 83°
2026-05-05 13:15 50.81339 -0.50313 1496 ft 97 kts 83°
2026-05-05 13:15 50.81353 -0.49246 1496 ft 97 kts 83°
2026-05-05 13:15 50.81367 -0.48181 1496 ft 97 kts 83°
2026-05-05 13:16 50.81380 -0.47114 1497 ft 97 kts 83°
2026-05-05 13:16 50.81394 -0.46048 1497 ft 97 kts 83°
2026-05-05 13:16 50.81406 -0.45114 1497 ft 97 kts 83°
2026-05-05 13:16 50.81420 -0.44045 1496 ft 97 kts 83°
2026-05-05 13:17 50.81433 -0.42979 1496 ft 96 kts 83°
2026-05-05 13:17 50.81448 -0.41952 1435 ft 95 kts 82°
2026-05-05 13:17 50.81443 -0.40889 1342 ft 98 kts 86°
2026-05-05 13:17 50.81369 -0.39820 1259 ft 97 kts 94°
2026-05-05 13:18 50.81236 -0.38762 1144 ft 97 kts 95°
2026-05-05 13:18 50.81150 -0.37723 1001 ft 93 kts 86°
2026-05-05 13:18 50.81194 -0.36754 853 ft 83 kts 76°
2026-05-05 13:18 50.81336 -0.35914 725 ft 76 kts 62°
2026-05-05 13:19 50.81567 -0.35161 628 ft 76 kts 59°
2026-05-05 13:19 50.81779 -0.34412 579 ft 71 kts 60°
2026-05-05 13:19 50.81987 -0.33744 549 ft 68 kts 57°
2026-05-05 13:19 50.82209 -0.33068 516 ft 70 kts 56°
2026-05-05 13:20 50.82450 -0.32415 425 ft 67 kts 54°
2026-05-05 13:20 50.82659 -0.31781 314 ft 63 kts 58°
2026-05-05 13:20 50.82858 -0.31166 198 ft 65 kts 56°
2026-05-05 13:20 50.83075 -0.30549 96 ft 63 kts 58°
2026-05-05 13:21 50.83267 -0.29972 15 ft 54 kts 58°
2026-05-05 13:21 50.83470 -0.29385 78 ft 75 kts 55°
2026-05-05 13:21 50.83698 -0.28666 365 ft 69 kts 58°
2026-05-05 13:21 50.83677 -0.27899 545 ft 80 kts 108°
2026-05-05 13:22 50.83196 -0.27371 712 ft 92 kts 164°
2026-05-05 13:22 50.82558 -0.27535 841 ft 97 kts 195°
2026-05-05 13:22 50.81915 -0.27811 829 ft 90 kts 197°
2026-05-05 13:22 50.81354 -0.28125 809 ft 85 kts 204°
2026-05-05 13:23 50.80967 -0.28733 725 ft 75 kts 248°
2026-05-05 13:23 50.80803 -0.29503 646 ft 75 kts 264°
2026-05-05 13:23 50.80777 -0.30286 545 ft 68 kts 288°
2026-05-05 13:23 50.81024 -0.30874 448 ft 65 kts 331°
2026-05-05 13:24 50.81432 -0.31000 432 ft 58 kts
2026-05-05 13:24 50.81822 -0.30841 380 ft 58 kts 19°
2026-05-05 13:24 50.82204 -0.30598 285 ft 60 kts 20°
2026-05-05 13:24 50.82581 -0.30357 185 ft 56 kts 22°
2026-05-05 13:25 50.82931 -0.30123 81 ft 53 kts 20°
2026-05-05 13:25 50.83265 -0.29911 12 ft 48 kts 21°
2026-05-05 13:25 50.83513 -0.29755 11 ft 31 kts 22°
2026-05-05 13:25 50.83673 -0.29654 11 ft 21 kts 21°
2026-05-05 13:26 50.83752 -0.29605 11 ft 15 kts 21°
2026-05-05 13:26 50.83884 -0.29523 11 ft 19 kts 21°
2026-05-05 13:26 50.83953 -0.29479 11 ft 12 kts 22°
2026-05-05 13:26 50.83983 -0.29426 11 ft 10 kts 108°
2026-05-05 13:27 50.83949 -0.29333 11 ft 8 kts 165°
2026-05-05 13:27 50.83846 -0.29330 11 ft 16 kts 165°
2026-05-05 13:27 50.83774 -0.29212 11 ft 16 kts 125°
2026-05-05 13:27 50.83705 -0.29053 11 ft 19 kts 124°
2026-05-05 13:28 50.83631 -0.28884 11 ft 18 kts 124°
2026-05-05 13:28 50.83539 -0.28808 11 ft 14 kts 187°
2026-05-05 13:28 50.83492 -0.28914 11 ft 11 kts 253°
2026-05-05 13:28 50.83447 -0.28984 11 ft 10 kts 198°
2026-05-05 13:29 50.83407 -0.29026 11 ft 2 kts 287°